Time,TemperatureF,DewpointF,PressureIn,WindDirection,WindDirectionDegrees,WindSpeedMPH,WindSpeedGustMPH,Humidity,HourlyPrecipIn,Conditions,Clouds,dailyrainin,SolarRadiationWatts/m^2,SoftwareType,DateUTC
2014-01-13 00:21:00,45.0,45.0,-100.00,East,97,3.0,9.0,100,0.00,,,1.00,0.000000,,2014-01-13 08:21:00,
2014-01-13 00:32:00,45.0,45.0,-100.00,East,97,3.0,9.0,100,0.00,,,1.00,0.000000,,2014-01-13 08:32:00,
2014-01-13 00:42:00,45.0,45.0,-100.00,East,97,3.0,9.0,100,0.00,,,1.00,0.000000,,2014-01-13 08:42:00,
2014-01-13 00:52:00,45.0,45.0,-100.00,East,97,3.0,9.0,100,0.00,,,1.00,0.000000,,2014-01-13 08:52:00,
2014-01-13 00:53:00,43.0,43.0,-100.00,NNW,336,3.0,10.0,100,0.01,,,0.99,0.000000,,2014-01-13 08:53:00,
2014-01-13 01:22:00,43.0,43.0,-100.00,NNW,336,3.0,10.0,100,0.01,,,0.99,0.000000,,2014-01-13 09:22:00,
2014-01-13 01:34:00,43.0,43.0,-100.00,NNW,336,3.0,10.0,100,0.01,,,0.99,0.000000,,2014-01-13 09:34:00,
2014-01-13 01:43:00,43.0,43.0,-100.00,NNW,336,3.0,10.0,100,0.01,,,0.99,0.000000,,2014-01-13 09:43:00,
2014-01-13 02:22:00,44.0,44.0,-100.00,SW,230,1.0,9.0,100,0.00,,,-99.99,0.000000,,2014-01-13 10:22:00,
2014-01-13 02:33:00,44.0,44.0,-100.00,SW,230,1.0,9.0,100,0.00,,,-99.99,0.000000,,2014-01-13 10:33:00,
2014-01-13 02:42:00,44.0,44.0,-100.00,SW,230,1.0,9.0,100,0.00,,,-99.99,0.000000,,2014-01-13 10:42:00,
2014-01-13 02:52:00,44.0,44.0,-100.00,SW,230,1.0,9.0,100,0.00,,,-99.99,0.000000,,2014-01-13 10:52:00,
2014-01-13 03:21:00,42.0,42.0,-100.00,North,-999,0.0,3.0,100,0.00,,,0.99,0.000000,,2014-01-13 11:21:00,
2014-01-13 03:33:00,42.0,42.0,-100.00,North,-999,0.0,3.0,100,0.00,,,0.99,0.000000,,2014-01-13 11:33:00,
2014-01-13 03:42:00,42.0,42.0,-100.00,North,-999,0.0,3.0,100,0.00,,,0.99,0.000000,,2014-01-13 11:42:00,
2014-01-13 03:52:00,42.0,42.0,-100.00,North,-999,0.0,3.0,100,0.00,,,0.99,0.000000,,2014-01-13 11:52:00,
2014-01-13 04:22:00,43.0,43.0,-100.00,North,-999,0.0,3.0,100,0.00,,,-99.99,0.000000,,2014-01-13 12:22:00,
2014-01-13 04:32:00,43.0,43.0,-100.00,North,-999,0.0,3.0,100,0.00,,,-99.99,0.000000,,2014-01-13 12:32:00,
2014-01-13 04:42:00,43.0,43.0,-100.00,North,-999,0.0,3.0,100,0.00,,,-99.99,0.000000,,2014-01-13 12:42:00,
2014-01-13 04:52:00,43.0,43.0,-100.00,North,-999,0.0,3.0,100,0.00,,,-99.99,0.000000,,2014-01-13 12:52:00,
2014-01-13 05:21:00,43.0,43.0,-100.00,West,281,1.0,5.0,100,0.00,,,0.85,0.000000,,2014-01-13 13:21:00,
2014-01-13 05:32:00,43.0,43.0,-100.00,West,281,1.0,5.0,100,0.00,,,0.85,0.000000,,2014-01-13 13:32:00,
2014-01-13 05:42:00,43.0,43.0,-100.00,West,281,1.0,5.0,100,0.00,,,0.85,0.000000,,2014-01-13 13:42:00,
2014-01-13 05:52:00,43.0,43.0,-100.00,West,281,1.0,5.0,100,0.00,,,0.85,0.000000,,2014-01-13 13:52:00,
2014-01-13 06:21:00,43.0,43.0,-100.00,North,-999,0.0,2.0,100,0.00,,,0.78,0.000000,,2014-01-13 14:21:00,
2014-01-13 06:32:00,43.0,43.0,-100.00,North,-999,0.0,2.0,100,0.00,,,0.78,0.000000,,2014-01-13 14:32:00,
2014-01-13 06:42:00,43.0,43.0,-100.00,North,-999,0.0,2.0,100,0.00,,,0.78,0.000000,,2014-01-13 14:42:00,
2014-01-13 06:52:00,43.0,43.0,-100.00,North,-999,0.0,2.0,100,0.00,,,0.78,0.000000,,2014-01-13 14:52:00,
2014-01-13 06:53:00,43.0,43.0,-100.00,North,-999,0.0,1.0,100,0.00,,,0.68,0.000000,,2014-01-13 14:53:00,
2014-01-13 07:22:00,43.0,43.0,-100.00,North,-999,0.0,1.0,100,0.00,,,0.68,0.000000,,2014-01-13 15:22:00,
2014-01-13 07:33:00,43.0,43.0,-100.00,North,-999,0.0,1.0,100,0.00,,,0.68,0.000000,,2014-01-13 15:33:00,
2014-01-13 07:44:00,43.0,43.0,-100.00,North,-999,0.0,1.0,100,0.00,,,0.68,0.000000,,2014-01-13 15:44:00,
2014-01-13 07:53:00,43.0,43.0,-100.00,North,-999,0.0,2.0,100,0.00,,,0.58,0.000000,,2014-01-13 15:53:00,
2014-01-13 08:23:00,43.0,43.0,-100.00,North,-999,0.0,2.0,100,0.00,,,0.58,0.000000,,2014-01-13 16:23:00,
2014-01-13 08:33:00,43.0,43.0,-100.00,North,-999,0.0,2.0,100,0.00,,,0.58,0.000000,,2014-01-13 16:33:00,
2014-01-13 08:42:00,43.0,43.0,-100.00,North,-999,0.0,2.0,100,0.00,,,0.58,0.000000,,2014-01-13 16:42:00,
2014-01-13 09:22:00,42.0,42.0,-100.00,North,-999,0.0,2.0,100,0.00,,,-99.99,0.000000,,2014-01-13 17:22:00,
2014-01-13 09:32:00,42.0,42.0,-100.00,North,-999,0.0,2.0,100,0.00,,,-99.99,0.000000,,2014-01-13 17:32:00,
2014-01-13 09:42:00,42.0,42.0,-100.00,North,-999,0.0,2.0,100,0.00,,,-99.99,0.000000,,2014-01-13 17:42:00,
2014-01-13 09:52:00,42.0,42.0,-100.00,North,-999,0.0,2.0,100,0.00,,,-99.99,0.000000,,2014-01-13 17:52:00,
2014-01-13 09:53:00,45.0,45.0,-100.00,North,-999,0.0,2.0,100,0.00,,,0.32,85.000000,,2014-01-13 17:53:00,
2014-01-13 10:32:00,45.0,45.0,-100.00,North,-999,0.0,2.0,100,0.00,,,0.32,85.000000,,2014-01-13 18:32:00,
2014-01-13 10:42:00,45.0,45.0,-100.00,North,-999,0.0,2.0,100,0.00,,,0.32,85.000000,,2014-01-13 18:42:00,
2014-01-13 11:21:00,48.0,47.0,-100.00,North,-999,0.0,2.0,98,0.00,,,0.15,205.000000,,2014-01-13 19:21:00,
2014-01-13 11:32:00,48.0,47.0,-100.00,North,-999,0.0,2.0,98,0.00,,,0.15,205.000000,,2014-01-13 19:32:00,
2014-01-13 11:42:00,48.0,47.0,-100.00,North,-999,0.0,2.0,98,0.00,,,0.15,205.000000,,2014-01-13 19:42:00,
2014-01-13 11:52:00,48.0,47.0,-100.00,North,-999,0.0,2.0,98,0.00,,,0.15,205.000000,,2014-01-13 19:52:00,
2014-01-13 12:21:00,51.0,44.0,-100.00,SSW,199,1.0,4.0,76,0.00,,,0.11,385.000000,,2014-01-13 20:21:00,
2014-01-13 12:32:00,51.0,44.0,-100.00,SSW,199,1.0,4.0,76,0.00,,,0.11,385.000000,,2014-01-13 20:32:00,
2014-01-13 12:42:00,51.0,44.0,-100.00,SSW,199,1.0,4.0,76,0.00,,,0.11,385.000000,,2014-01-13 20:42:00,
2014-01-13 12:52:00,51.0,44.0,-100.00,SSW,199,1.0,4.0,76,0.00,,,0.11,385.000000,,2014-01-13 20:52:00,
2014-01-13 12:53:00,50.0,43.0,-100.00,North,-999,0.0,3.0,77,0.00,,,0.10,223.000000,,2014-01-13 20:53:00,
2014-01-13 13:22:00,50.0,43.0,-100.00,North,-999,0.0,3.0,77,0.00,,,0.10,223.000000,,2014-01-13 21:22:00,
2014-01-13 13:33:00,50.0,43.0,-100.00,North,-999,0.0,3.0,77,0.00,,,0.10,223.000000,,2014-01-13 21:33:00,
2014-01-13 13:43:00,50.0,43.0,-100.00,North,-999,0.0,3.0,77,0.00,,,0.10,223.000000,,2014-01-13 21:43:00,
2014-01-13 13:53:00,50.0,40.0,-100.00,West,281,3.0,5.0,69,0.00,,,0.09,310.000000,,2014-01-13 21:53:00,
2014-01-13 14:23:00,50.0,40.0,-100.00,West,281,3.0,5.0,69,0.00,,,0.09,310.000000,,2014-01-13 22:23:00,
2014-01-13 14:33:00,50.0,40.0,-100.00,West,281,3.0,5.0,69,0.00,,,0.09,310.000000,,2014-01-13 22:33:00,
2014-01-13 14:42:00,50.0,40.0,-100.00,West,281,3.0,5.0,69,0.00,,,0.09,310.000000,,2014-01-13 22:42:00,
2014-01-13 15:22:00,48.0,40.0,-100.00,North,-999,0.0,5.0,73,0.00,,,0.08,243.000000,,2014-01-13 23:22:00,
2014-01-13 15:32:00,48.0,40.0,-100.00,North,-999,0.0,5.0,73,0.00,,,0.08,243.000000,,2014-01-13 23:32:00,
2014-01-13 15:43:00,48.0,40.0,-100.00,North,-999,0.0,5.0,73,0.00,,,0.08,243.000000,,2014-01-13 23:43:00,
2014-01-13 15:52:00,48.0,40.0,-100.00,North,-999,0.0,5.0,73,0.00,,,0.08,243.000000,,2014-01-13 23:52:00,
2014-01-13 16:21:00,48.0,41.0,-100.00,North,-999,0.0,2.0,78,0.00,,,0.06,113.000000,,2014-01-14 00:21:00,
2014-01-13 16:32:00,48.0,41.0,-100.00,North,-999,0.0,2.0,78,0.00,,,0.06,113.000000,,2014-01-14 00:32:00,
2014-01-13 16:42:00,48.0,41.0,-100.00,North,-999,0.0,2.0,78,0.00,,,0.06,113.000000,,2014-01-14 00:42:00,
2014-01-13 16:52:00,48.0,41.0,-100.00,North,-999,0.0,2.0,78,0.00,,,0.06,113.000000,,2014-01-14 00:52:00,
2014-01-13 17:21:00,44.0,39.0,-100.00,East,95,1.0,2.0,83,0.00,,,0.06,44.000000,,2014-01-14 01:21:00,
2014-01-13 17:32:00,44.0,39.0,-100.00,East,95,1.0,2.0,83,0.00,,,0.06,44.000000,,2014-01-14 01:32:00,
2014-01-13 17:42:00,44.0,39.0,-100.00,East,95,1.0,2.0,83,0.00,,,0.06,44.000000,,2014-01-14 01:42:00,
2014-01-13 17:52:00,44.0,39.0,-100.00,East,95,1.0,2.0,83,0.00,,,0.06,44.000000,,2014-01-14 01:52:00,
2014-01-13 18:21:00,45.0,40.0,-100.00,ENE,68,2.0,4.0,83,0.00,,,0.04,3.000000,,2014-01-14 02:21:00,
2014-01-13 18:32:00,45.0,40.0,-100.00,ENE,68,2.0,4.0,83,0.00,,,0.04,3.000000,,2014-01-14 02:32:00,
2014-01-13 18:42:00,45.0,40.0,-100.00,ENE,68,2.0,4.0,83,0.00,,,0.04,3.000000,,2014-01-14 02:42:00,
2014-01-13 18:52:00,45.0,40.0,-100.00,ENE,68,2.0,4.0,83,0.00,,,0.04,3.000000,,2014-01-14 02:52:00,
2014-01-13 18:53:00,44.0,40.0,-100.00,ENE,76,1.0,4.0,86,0.00,,,0.03,0.000000,,2014-01-14 02:53:00,
2014-01-13 19:22:00,44.0,40.0,-100.00,ENE,76,1.0,4.0,86,0.00,,,0.03,0.000000,,2014-01-14 03:22:00,
2014-01-13 19:33:00,44.0,40.0,-100.00,ENE,76,1.0,4.0,86,0.00,,,0.03,0.000000,,2014-01-14 03:33:00,
2014-01-13 19:43:00,44.0,40.0,-100.00,ENE,76,1.0,4.0,86,0.00,,,0.03,0.000000,,2014-01-14 03:43:00,
2014-01-13 19:53:00,42.0,38.0,-100.00,ENE,73,1.0,4.0,85,0.00,,,0.03,0.000000,,2014-01-14 03:53:00,
2014-01-13 20:22:00,42.0,38.0,-100.00,ENE,73,1.0,4.0,85,0.00,,,0.03,0.000000,,2014-01-14 04:22:00,
2014-01-13 20:33:00,42.0,38.0,-100.00,ENE,73,1.0,4.0,85,0.00,,,0.03,0.000000,,2014-01-14 04:33:00,
2014-01-13 20:43:00,42.0,38.0,-100.00,ENE,73,1.0,4.0,85,0.00,,,0.03,0.000000,,2014-01-14 04:43:00,
2014-01-13 21:22:00,44.0,39.0,-100.00,ENE,69,2.0,4.0,81,0.00,,,0.02,0.000000,,2014-01-14 05:22:00,
2014-01-13 21:33:00,44.0,39.0,-100.00,ENE,69,2.0,4.0,81,0.00,,,0.02,0.000000,,2014-01-14 05:33:00,
2014-01-13 21:42:00,44.0,39.0,-100.00,ENE,69,2.0,4.0,81,0.00,,,0.02,0.000000,,2014-01-14 05:42:00,
2014-01-13 21:52:00,44.0,39.0,-100.00,ENE,69,2.0,4.0,81,0.00,,,0.02,0.000000,,2014-01-14 05:52:00,
2014-01-13 22:22:00,43.0,38.0,-100.00,ENE,68,3.0,6.0,81,0.00,,,0.01,0.000000,,2014-01-14 06:22:00,
2014-01-13 22:32:00,43.0,38.0,-100.00,ENE,68,3.0,6.0,81,0.00,,,0.01,0.000000,,2014-01-14 06:32:00,
2014-01-13 22:42:00,43.0,38.0,-100.00,ENE,68,3.0,6.0,81,0.00,,,0.01,0.000000,,2014-01-14 06:42:00,
2014-01-13 22:52:00,43.0,38.0,-100.00,ENE,68,3.0,6.0,81,0.00,,,0.01,0.000000,,2014-01-14 06:52:00,
2014-01-13 23:22:00,43.0,40.0,-100.00,ENE,66,1.0,6.0,88,0.00,,,0.01,0.000000,,2014-01-14 07:22:00,
2014-01-13 23:32:00,43.0,40.0,-100.00,ENE,66,1.0,6.0,88,0.00,,,0.01,0.000000,,2014-01-14 07:32:00,
2014-01-13 23:42:00,43.0,40.0,-100.00,ENE,66,1.0,6.0,88,0.00,,,0.01,0.000000,,2014-01-14 07:42:00,
2014-01-13 23:52:00,43.0,40.0,-100.00,ENE,66,1.0,6.0,88,0.00,,,0.01,0.000000,,2014-01-14 07:52:00,